Probability
0 0 0 0 0 0 0 0 0 0 0 0 0 0 0 0 0 0 0 0 0 0 0 0 0 0 0 0 0 0 0 0 0 0 0 0 0 0 0 0 0 0 0
0 0 0 0 0 0 0 0 0 0 0 0 0 0 0 0 0 0 0 0 0 0 0 0 0 0 0 0 0 0 0 0 0 0 0 0 0 0 0 0 0 0 0
0 0 0 0 0 0 0 0 0 0 0 0 0 0 0 0 0 0 0 0 0 0 0 0 0 0 0 0 0 0 0 0 0 0 0 0 0 0 0 0 0 0 0
0 0 0 0 0 0 0 0 0 0 0 0 0 0 0 0 0 0 0 0 0 0 0 0 0 0 0 0 0 0 0 0 0 0 0 0 0 0 0 0 0 0 0
0 0 0 0 0 0 0 0 0 0 0 0 0 0 0 0 0 0 0 0 0 0 0 0 0 0 0 0 0 0 0 0 0 0 0 0 0 0 0 0 0 0 0
0 0 0 0 0 0 0 0 0 0 0 0 0 0 0 0 0 0 0 0 0 0 0 0 0 0 0 0 0 0 0 0 0 0 0 0 0 0 0 0 0 0 0
0 0 0 0 0 0 0 0 0 0 0 0 0 0 0 0 0 0 0 0 0 0 0 0 0 0 0 0 0 0 0 0 0 0 0 0 0 0 0 0 0 0 0
0 0 0 0 0 0 0 0 0 0 0 0 0 0 0 0 0 0 0 0 0 0 0 0 0 0 0 0 0 0 0 0 0 0 0 0 0 0 0 0 0 0 0
0 0 0 0 0 0 0 0 0 0 0 0 0 0 0 0 0 0 0 0 0 0 0 0 0 0 0 0 0 0 0 0 0 0 0 0 0 0 0 0 0 0 0
0 0 0 0 0 0 0 0 0 0 0 0 0 0 0 0 0 0 0 0 0 0 0 0 0 0 0 0 0 0 0 0 0 0 0 0 0 0 0 0 0 0 0
0 0 0 0 0 0 0 0 0 0 0 0 0 0 0 0 0 0 0 0 0 0 0 0 0 0 0 0 0 0 0 0 0 0 0 0 0 0 0 0 0 0 0
0 0 0 0 0 0 0 0 0 0 0 0 0 0 0 0 0 0 0 0 0 0 0 0 0 0 0 0 0 0 0 0 0 0 0 0 0 0 0 0 0 0 0
0 0 0 0 0 0 0 0 0 0 0 0 0 0 0 0 0 0 0 0 0 0 0 0 0 0 0 0 0 0 0 0 0 0 0 0 0 0 0 0 0 0 0
0 0 0 0 0 0 0 0 0 0 0 0 0 0 0 0 0 0 0 0 0 0 0 0 0 0 0 0 0 0 0 0 0 0 0 0 0 0 0 0 0 0 0
0 0 0 0 0 0 0 0 0 0 0 0 0 0 0 0 0 0 0 0 0 0 0 0 0 0 0 0 0 0 0 0 0 0 0 0 0 0 0 0 0 0 0
0 0 0 0 0 0 0 0 0 0 0 0 0 0 0 0 0 0 0 0 0 0 0 0 0 0 0 0 0 0 0 0 0 0 0 0 0 0 0 0 0 0 0
0 0 0 0 0 0 0 0 0 0 0 0 0 0 0 0 0 0 0 0 0 0 0 0 0 0 0 0 0 0 0 0 0 0 0 0 0 0 0 0 0 0 0
0 0 0 0 0 0 0 0 0 0 0 0 0 0 0 0 0 0 0 0 0 0 0 0 0 0 0 0 0 0 0 0 0 0 0 0 0 0 0 0 0 0 0
0 0 0 0 0 0 0 0 0 0 0 0 0 0 0 0 0 0 0 0 0 0 0 0 0 0 0 0 0 0 0 0 0 0 0 0 0 0 0 0 0 0 0
0 0 0 0 0 0 0 0 0 0 0 0 0 0 0 0 0 0 0 0 0 0 0 0 0 0 0 0 0 0 0 0 0 0 0 0 0 0 0 0 0 0 0
0 0 0 0 0 0 0 0 0 0 0 0 0 0 0 0 0 0 0 0 0 0 0 0 0 0 0 0 0 0 0 0 0 0 0 0 0 0 0 0 0 0 0
0 0 0 0 0 0 0 0 0 0 0 0 0 0 0 0 0 0 0 0 0 0 0 0 0 0 0 0 0 0 0 0 0 0 0 0 0 0 0 0 0 0 0
0 0 0 0 0 0 0 0 0 0 0 0 0 0 0 0 0 0 0 0 0 0 0 0 0 0 0 0 0 0 0 0 0 0 0 0 0 0 0 0 0 0 0
0 0 0 0 0 0 0 0 0 0 0 0 0 0 0 0 0 0 0 0 0 0 0 0 0 0 0 0 0 0 0 0 0 0 0 0 0 0 0 0 0 0 0
0 0 0 0 0 0 0 0 0 0 0 0 0 0 0 0 0 0 0 0 0 0 0 0 0 0 0 0 0 0 0 0 0 0 0 0 0 0 0 0 0 0 0
0 0 0 0 0 0 0 0 0 0 0 0 0 0 0 0 0 0 0 0 0 0 0 0 0 0 0 0 0 0 0 0 0 0 0 0 0 0 0 0 0 0 0
Height
5819 5817 5816 5814 5812 5810 5808 5806 5803 5800 5797 5794 5791 5788 5784 5779 5775 5770 5766 5760 5755 5750 5744 5738 5732 5725 5719 5712 5705 5698 5691 5684 5677 5671 5664 5657 5649 5641 5633 5625 5617 5609 5601
5812 5811 5809 5807 5805 5803 5800 5798 5795 5792 5789 5786 5782 5779 5775 5771 5766 5761 5755 5750 5745 5739 5733 5727 5720 5714 5707 5700 5693 5686 5679 5671 5664 5657 5649 5643 5637 5629 5618 5608 5599 5589 5580
5805 5804 5802 5799 5797 5795 5792 5789 5786 5783 5780 5776 5773 5770 5765 5761 5756 5750 5745 5740 5734 5728 5722 5715 5708 5702 5695 5687 5680 5673 5665 5658 5650 5642 5634 5627 5620 5613 5605 5593 5582 5572 5561
5798 5796 5794 5791 5789 5786 5783 5781 5777 5774 5770 5766 5763 5759 5755 5751 5745 5739 5734 5728 5722 5716 5709 5702 5695 5689 5681 5674 5666 5659 5651 5643 5635 5628 5620 5611 5603 5595 5589 5580 5566 5554 5543
5790 5788 5786 5783 5780 5777 5774 5771 5768 5764 5760 5756 5752 5748 5744 5739 5733 5728 5722 5716 5710 5703 5696 5689 5682 5675 5668 5660 5652 5645 5637 5629 5621 5613 5605 5596 5587 5577 5570 5563 5551 5538 5525
5783 5780 5777 5775 5772 5768 5765 5762 5758 5754 5750 5745 5741 5736 5732 5726 5721 5715 5709 5702 5696 5690 5683 5675 5668 5661 5653 5645 5638 5630 5622 5614 5605 5597 5588 5580 5571 5561 5552 5544 5534 5523 5510
5774 5772 5769 5766 5763 5759 5756 5752 5748 5744 5739 5734 5729 5724 5719 5713 5708 5702 5695 5689 5682 5676 5668 5660 5653 5646 5638 5630 5622 5614 5606 5598 5590 5581 5572 5563 5554 5544 5534 5525 5516 5505 5494
5766 5764 5760 5757 5753 5750 5746 5742 5737 5733 5727 5722 5717 5711 5706 5700 5694 5688 5681 5674 5668 5661 5653 5645 5638 5631 5622 5614 5606 5599 5590 5582 5574 5565 5556 5547 5537 5527 5517 5507 5497 5487 5478
5758 5754 5751 5747 5743 5739 5734 5730 5725 5720 5714 5709 5703 5698 5692 5686 5680 5673 5666 5659 5652 5645 5638 5630 5622 5615 5607 5599 5590 5583 5575 5566 5558 5549 5540 5530 5521 5510 5500 5489 5478 5468 5459
5749 5745 5741 5736 5732 5727 5722 5717 5712 5707 5701 5695 5689 5683 5678 5671 5664 5657 5651 5644 5637 5629 5622 5614 5607 5599 5591 5583 5575 5567 5559 5550 5542 5533 5523 5514 5504 5494 5483 5472 5461 5450 5439
5740 5735 5730 5725 5720 5715 5709 5704 5698 5692 5686 5680 5674 5669 5663 5655 5649 5642 5635 5628 5620 5613 5605 5598 5590 5582 5574 5566 5558 5551 5543 5535 5526 5517 5507 5498 5487 5478 5467 5456 5445 5434 5422
5728 5723 5718 5713 5707 5702 5696 5690 5684 5678 5672 5665 5659 5653 5647 5639 5632 5626 5619 5611 5604 5596 5589 5581 5573 5566 5558 5550 5542 5535 5527 5519 5510 5501 5492 5482 5471 5462 5451 5440 5429 5418 5406
5714 5709 5704 5699 5694 5688 5682 5676 5669 5663 5656 5650 5643 5637 5630 5623 5616 5609 5602 5594 5587 5579 5572 5564 5557 5549 5541 5534 5526 5519 5511 5503 5494 5485 5476 5467 5456 5446 5436 5425 5414 5403 5391
5702 5696 5691 5685 5679 5673 5667 5661 5654 5647 5640 5634 5627 5621 5613 5606 5599 5592 5584 5577 5569 5562 5555 5547 5540 5532 5525 5517 5510 5502 5495 5487 5479 5470 5461 5451 5441 5431 5421 5410 5399 5388 5377
5689 5683 5677 5671 5665 5658 5652 5645 5639 5631 5624 5618 5611 5603 5596 5588 5581 5574 5566 5559 5552 5545 5537 5530 5523 5516 5508 5501 5494 5486 5479 5471 5463 5455 5446 5437 5427 5416 5406 5396 5385 5374 5363
5675 5669 5663 5656 5649 5643 5636 5630 5622 5615 5608 5600 5593 5586 5578 5571 5563 5556 5549 5542 5535 5528 5521 5514 5507 5500 5493 5486 5478 5471 5464 5456 5448 5440 5431 5422 5412 5402 5392 5382 5371 5360 5349
5662 5655 5649 5642 5634 5627 5620 5613 5606 5599 5591 5583 5576 5568 5561 5554 5547 5540 5533 5526 5519 5512 5505 5498 5491 5485 5478 5470 5463 5455 5449 5441 5434 5426 5417 5408 5398 5388 5378 5368 5358 5347 5335
5648 5641 5634 5627 5620 5612 5604 5597 5590 5582 5574 5567 5560 5552 5545 5538 5531 5524 5517 5510 5503 5497 5490 5483 5476 5470 5463 5455 5448 5441 5434 5427 5420 5411 5403 5394 5385 5374 5364 5355 5345 5335 5325
5634 5627 5619 5612 5604 5597 5589 5582 5575 5567 5560 5552 5545 5537 5530 5524 5517 5510 5502 5495 5488 5481 5475 5468 5461 5455 5448 5441 5434 5426 5420 5413 5406 5398 5389 5380 5371 5361 5351 5342 5333 5323 5313
5620 5612 5605 5597 5590 5582 5575 5568 5561 5553 5546 5538 5531 5523 5516 5509 5502 5495 5487 5480 5473 5466 5459 5452 5446 5439 5433 5426 5419 5412 5406 5400 5392 5384 5376 5367 5358 5348 5338 5328 5319 5310 5301
5605 5598 5591 5583 5575 5568 5561 5554 5547 5539 5532 5524 5517 5509 5501 5494 5486 5479 5472 5464 5457 5450 5443 5437 5431 5424 5418 5412 5405 5398 5392 5386 5378 5371 5362 5354 5345 5335 5325 5316 5307 5298 5288
5591 5583 5576 5569 5561 5553 5546 5540 5533 5526 5518 5510 5502 5494 5486 5478 5471 5463 5456 5448 5441 5434 5427 5421 5415 5409 5403 5397 5391 5385 5379 5372 5365 5358 5349 5341 5332 5323 5314 5304 5295 5286 5277
5576 5569 5562 5555 5547 5539 5531 5525 5518 5511 5504 5496 5487 5479 5471 5463 5455 5447 5440 5433 5425 5419 5412 5406 5400 5394 5388 5383 5377 5371 5365 5358 5352 5345 5337 5329 5320 5311 5302 5293 5284 5275 5266
5561 5554 5547 5541 5534 5525 5517 5510 5503 5496 5489 5481 5473 5465 5457 5449 5440 5432 5425 5417 5410 5404 5397 5391 5385 5379 5374 5369 5364 5358 5352 5345 5339 5332 5325 5317 5309 5300 5291 5282 5273 5265 5256
5546 5539 5532 5525 5519 5511 5504 5496 5488 5481 5474 5466 5458 5450 5442 5434 5426 5418 5410 5403 5396 5389 5383 5377 5371 5365 5361 5356 5350 5345 5339 5333 5327 5321 5314 5306 5298 5290 5281 5272 5263 5255 5247
5530 5524 5517 5510 5504 5497 5489 5481 5474 5467 5459 5452 5444 5436 5428 5419 5411 5404 5397 5389 5383 5376 5369 5363 5358 5353 5348 5343 5338 5333 5328 5322 5316 5310 5303 5296 5288 5280 5272 5263 5254 5246 5238
Wind_Speed
26 26 26 27 27 28 29 29 30 31 32 33 34 35 36 38 40 41 43 44 46 47 49 50 52 53 54 55 56 57 58 58 58 58 58 58 59 61 62 64 66 68 69
27 27 28 28 29 30 31 32 32 33 34 36 37 38 39 41 43 44 46 48 49 50 51 53 54 55 56 57 58 59 59 60 60 60 60 59 60 60 63 65 67 69 71
28 29 29 30 31 32 33 34 35 36 37 39 40 41 43 44 46 48 49 51 52 53 54 55 56 57 58 59 60 60 60 61 61 61 61 61 61 61 63 65 68 70 72
29 30 31 32 33 35 36 37 38 39 40 42 43 44 46 47 49 50 52 53 54 55 56 57 59 59 60 60 60 61 61 61 61 61 61 62 63 64 63 65 68 71 72
30 32 33 34 36 37 38 40 41 42 44 45 47 48 49 50 52 53 54 56 57 58 58 59 61 61 61 61 62 62 61 62 62 62 62 63 64 65 65 66 68 70 72
32 33 35 36 38 39 41 42 43 44 46 48 49 51 52 53 54 55 57 58 59 60 60 61 63 62 62 63 63 63 62 62 62 63 63 64 65 66 67 67 68 70 70
33 35 36 38 39 41 43 44 46 47 49 51 52 53 54 56 56 58 59 60 60 61 62 63 64 63 64 64 64 64 63 62 63 64 65 65 66 67 68 68 69 70 69
35 36 38 39 41 43 44 46 47 49 51 53 54 55 56 57 58 59 60 61 61 62 63 64 65 65 65 65 64 64 63 64 64 64 65 66 66 67 68 69 70 71 69
38 39 41 42 44 44 46 47 49 50 52 54 55 55 57 58 59 60 61 61 62 64 65 65 65 65 65 65 64 64 64 64 65 65 65 66 66 67 68 69 70 71 71
41 42 43 44 45 46 47 48 50 51 52 54 55 56 57 58 59 60 61 62 64 65 66 66 66 66 66 65 65 64 64 64 65 64 65 65 66 67 67 69 70 71 71
42 43 44 45 46 47 48 49 50 51 52 54 55 56 57 58 59 61 62 64 65 65 66 66 67 66 66 65 64 64 64 64 64 63 64 65 66 66 67 68 69 69 70
46 46 46 47 47 48 49 50 51 53 54 55 56 57 58 59 61 62 64 66 66 67 67 68 67 66 65 65 64 64 64 63 63 64 64 65 65 65 66 67 67 68 68
48 49 49 49 49 50 51 52 53 54 56 57 58 59 60 62 63 65 66 66 67 67 67 67 67 66 65 64 64 63 63 63 63 64 64 64 64 64 65 66 66 66 66
50 50 50 50 50 51 52 53 54 56 57 59 60 61 62 64 65 66 66 67 67 66 66 65 64 63 63 63 62 61 61 62 62 63 64 63 63 64 64 65 65 65 64
50 51 51 51 52 52 53 55 56 58 60 61 62 63 64 65 65 65 64 64 63 63 62 62 60 59 59 59 59 59 60 61 61 62 63 62 62 63 63 63 63 63 63
52 53 53 54 54 55 56 57 58 60 61 62 62 62 63 63 62 62 61 60 60 59 59 58 57 57 56 56 57 57 58 59 60 60 60 60 61 62 62 61 62 62 61
54 54 55 56 57 58 59 59 59 59 60 60 60 59 58 58 57 57 57 56 57 58 57 56 55 54 54 55 55 56 56 57 57 58 58 59 60 61 60 59 60 59 58
56 56 57 57 58 59 59 58 58 57 57 56 55 55 54 54 54 54 54 55 56 56 54 54 53 53 54 55 55 56 56 55 55 56 57 58 59 59 59 58 58 57 55
58 59 59 59 59 58 57 56 55 54 54 53 53 53 53 52 52 53 53 54 55 54 54 54 53 53 53 54 55 54 55 54 54 55 56 57 57 57 57 57 56 55 53
60 60 60 59 57 57 56 55 54 54 53 53 53 53 54 54 54 54 55 54 54 54 54 53 53 53 53 53 53 53 53 53 53 54 55 55 56 56 55 55 54 53 51
61 61 60 58 57 56 56 55 54 54 53 53 54 54 55 55 55 55 54 54 54 54 54 53 52 52 52 51 51 51 51 52 52 52 53 53 54 54 53 53 52 51 50
62 61 60 58 57 56 56 55 55 54 54 54 55 55 55 55 55 55 55 55 54 54 53 52 52 51 51 50 50 50 50 50 50 50 51 52 52 52 51 50 49 49 48
61 60 59 57 56 56 56 56 55 55 55 55 56 55 55 55 55 55 54 53 53 53 52 51 51 50 49 49 48 48 49 49 48 48 49 50 50 50 49 48 48 47 46
61 60 58 57 56 56 56 56 56 56 56 55 55 54 54 54 54 53 53 53 52 52 51 49 49 48 47 47 46 47 47 47 46 46 47 48 48 48 47 46 46 45 44
60 59 58 56 55 55 55 56 56 55 55 55 54 54 54 54 53 52 52 52 51 50 49 48 47 46 45 44 45 45 45 44 43 44 45 46 46 45 45 44 43 42 40
60 58 57 56 56 55 55 56 56 55 55 54 54 54 54 53 52 51 50 49 49 47 46 46 45 43 42 43 43 42 41 41 41 41 42 43 43 43 42 41 40 39 37
Wind_Direction
273 275 275 276 278 280 281 283 285 287 289 291 293 295 296 298 300 301 303 304 305 307 307 308 309 309 309 309 309 309 308 307 306 305 304 304 304 305 306 306 306 306 306
275 275 276 277 278 280 281 283 285 287 289 290 292 294 295 297 298 300 301 303 304 305 306 306 307 308 308 307 307 307 307 307 305 305 304 303 304 305 307 307 308 308 308
277 276 276 277 278 279 280 283 285 287 288 289 291 293 294 296 297 298 300 301 302 303 304 305 305 306 306 306 306 306 306 306 305 304 304 304 304 304 307 308 309 309 309
278 277 276 276 277 278 280 282 284 286 287 289 291 292 294 295 295 297 299 300 301 302 303 303 304 304 305 304 304 305 305 305 305 304 304 304 305 306 307 308 309 309 310
279 277 277 276 277 279 281 283 285 286 287 289 290 292 293 294 295 296 298 298 300 301 302 302 303 304 304 303 303 304 304 304 305 304 304 305 305 306 307 309 309 310 311
281 280 279 279 280 281 282 284 285 287 288 289 290 292 292 293 294 296 296 297 298 300 301 301 302 303 303 303 303 303 303 304 305 305 305 305 306 306 308 309 310 311 311
286 285 285 285 285 286 286 287 288 288 289 290 291 291 292 293 294 295 296 297 298 299 299 300 301 302 302 302 302 303 302 303 304 305 305 306 306 307 308 309 310 311 312
292 292 291 291 291 291 291 290 290 290 290 290 291 291 292 293 294 295 295 296 297 298 298 299 300 301 301 301 302 302 302 303 304 305 306 307 307 307 309 310 311 312 313
297 296 295 294 294 293 292 292 291 291 291 291 291 291 292 293 294 294 295 296 296 297 297 299 299 300 300 301 301 301 302 303 305 305 306 307 307 308 309 310 311 312 313
298 298 297 296 296 295 294 293 293 292 292 292 292 292 293 293 294 294 295 295 295 296 297 298 299 300 300 300 301 301 302 303 305 305 306 307 307 308 309 310 311 312 313
300 299 298 297 296 295 295 294 294 293 293 292 292 293 294 294 293 294 294 294 295 297 298 298 299 300 300 300 300 301 302 303 304 305 306 307 307 308 309 310 311 312 313
303 302 301 299 298 297 296 295 294 294 293 293 293 293 294 293 293 294 294 295 296 297 297 298 299 299 299 299 299 300 301 302 303 304 305 306 307 308 309 310 311 312 312
305 304 303 301 300 299 298 296 295 294 293 293 293 293 293 293 293 294 294 295 296 297 297 297 298 298 298 298 299 300 300 301 302 303 304 306 307 308 309 310 311 312 312
307 306 305 304 303 302 300 299 297 296 295 295 294 294 293 293 293 294 294 295 296 297 297 297 298 298 298 298 299 299 300 300 302 303 304 306 307 308 309 310 311 312 312
308 307 306 305 304 303 301 300 298 297 297 296 296 295 294 294 294 295 295 296 296 296 296 297 297 297 298 299 299 299 299 300 301 303 304 305 307 308 309 310 310 311 312
308 307 306 305 304 303 302 301 300 299 298 297 297 296 295 295 295 296 295 296 296 296 296 297 297 298 298 299 299 299 299 300 301 303 304 305 307 308 309 309 310 311 312
308 308 307 306 305 304 303 302 301 301 300 300 299 298 297 297 297 296 296 296 296 296 297 297 297 297 298 298 298 298 299 299 300 302 304 305 306 307 308 309 310 311 311
309 308 308 307 306 305 304 303 303 302 302 301 301 300 300 299 299 299 298 297 297 298 297 297 297 297 297 296 297 298 298 299 300 302 304 305 306 307 309 310 310 311 311
307 307 306 306 306 306 306 306 305 304 303 303 302 301 301 300 300 301 301 300 299 298 297 297 297 297 296 296 296 297 298 299 301 302 304 306 307 308 309 310 311 311 311
306 306 306 306 306 306 306 306 306 305 304 304 303 302 301 301 301 301 301 300 300 298 297 297 296 297 296 295 296 296 298 299 300 302 304 306 307 308 310 311 311 312 312
306 306 306 306 306 305 305 306 306 305 305 304 303 303 302 302 302 302 301 301 300 299 298 297 296 296 295 295 295 296 298 299 300 302 305 306 308 309 311 311 312 313 313
305 305 305 306 305 305 305 306 306 306 306 305 304 304 303 303 303 303 302 301 300 299 298 297 296 295 295 294 294 296 298 299 301 303 305 306 308 310 311 312 312 313 313
304 305 305 305 304 304 305 306 306 307 306 306 305 305 304 304 304 304 303 302 302 300 300 299 297 295 295 294 294 295 297 299 301 303 305 307 309 311 313 313 313 314 314
304 304 304 304 304 305 306 306 306 307 307 307 306 306 306 306 306 305 304 304 303 302 301 300 299 296 295 295 295 296 297 299 301 303 306 308 310 313 314 314 314 315 315
303 303 303 304 304 305 305 305 306 307 308 308 308 308 308 308 307 306 306 305 305 303 302 300 300 298 297 296 296 297 298 300 302 304 306 309 312 314 315 316 316 316 316
302 302 303 303 304 305 305 305 307 308 308 308 308 308 309 309 308 307 307 306 306 306 305 302 299 299 298 297 298 298 299 301 303 305 308 311 313 316 317 318 319 319 319